TimeEST,TemperatureF,Dew PointF,Humidity,Sea Level PressureIn,VisibilityMPH,Wind Direction,Wind SpeedMPH,Gust SpeedMPH,PrecipitationIn,Events,Conditions,WindDirDegrees,DateUTC
12:15 AM,32.0,18.5,58,29.94,10.0,North,-9999.0,-,N/A,,Clear,0,2013-03-04 05:15:00
12:35 AM,32.0,18.1,57,29.94,10.0,North,-9999.0,-,N/A,,Clear,0,2013-03-04 05:35:00
12:55 AM,31.8,18.0,57,29.95,10.0,North,-9999.0,-,N/A,,Clear,0,2013-03-04 05:55:00
1:15 AM,31.8,17.6,56,29.94,10.0,North,-9999.0,-,N/A,,Clear,0,2013-03-04 06:15:00
2:15 AM,29.7,17.6,61,29.94,10.0,North,-9999.0,-,N/A,,Clear,0,2013-03-04 07:15:00
2:35 AM,30.2,17.6,60,29.94,10.0,North,-9999.0,-,N/A,,Clear,0,2013-03-04 07:35:00
3:15 AM,31.1,16.7,55,29.95,10.0,North,-9999.0,-,N/A,,Clear,0,2013-03-04 08:15:00
3:35 AM,30.9,16.5,55,29.95,10.0,North,-9999.0,-,N/A,,Clear,0,2013-03-04 08:35:00
3:55 AM,30.9,16.2,54,29.96,10.0,North,-9999.0,-,N/A,,Clear,0,2013-03-04 08:55:00
4:15 AM,30.7,15.8,54,29.96,10.0,North,-9999.0,-,N/A,,Clear,0,2013-03-04 09:15:00
4:55 AM,30.0,15.4,55,29.97,10.0,North,-9999.0,-,N/A,,Clear,0,2013-03-04 09:55:00
5:15 AM,30.0,15.4,55,29.99,10.0,North,-9999.0,-,N/A,,Clear,0,2013-03-04 10:15:00
5:55 AM,29.7,15.1,55,30.00,10.0,North,-9999.0,-,N/A,,Clear,0,2013-03-04 10:55:00
6:35 AM,29.7,14.7,54,30.01,10.0,North,-9999.0,-,N/A,,Clear,0,2013-03-04 11:35:00
6:55 AM,30.4,14.2,51,30.01,10.0,North,-9999.0,-,N/A,,Clear,0,2013-03-04 11:55:00
7:15 AM,31.1,13.8,49,30.02,10.0,North,-9999.0,-,N/A,,Clear,0,2013-03-04 12:15:00
7:35 AM,32.0,13.3,46,30.03,10.0,North,-9999.0,-,N/A,,Clear,0,2013-03-04 12:35:00
7:55 AM,32.0,13.1,46,30.04,10.0,North,-9999.0,-,N/A,,Clear,0,2013-03-04 12:55:00
8:15 AM,33.1,13.3,44,30.04,10.0,North,-9999.0,-,N/A,,Clear,0,2013-03-04 13:15:00
8:35 AM,33.6,13.3,43,30.04,10.0,North,-9999.0,-,N/A,,Clear,0,2013-03-04 13:35:00
8:55 AM,34.2,12.9,42,30.04,10.0,North,-9999.0,-,N/A,,Clear,0,2013-03-04 13:55:00
9:15 AM,35.1,13.1,40,30.04,10.0,North,-9999.0,-,N/A,,Clear,0,2013-03-04 14:15:00
9:35 AM,36.5,13.5,39,30.04,10.0,North,-9999.0,-,N/A,,Clear,0,2013-03-04 14:35:00
9:55 AM,36.3,13.3,39,30.04,10.0,North,-9999.0,-,N/A,,Clear,0,2013-03-04 14:55:00
10:15 AM,38.1,13.8,37,30.04,10.0,North,-9999.0,-,N/A,,Clear,0,2013-03-04 15:15:00
10:35 AM,38.7,13.8,36,30.03,10.0,North,-9999.0,-,N/A,,Clear,0,2013-03-04 15:35:00
10:55 AM,39.9,14.5,36,30.02,10.0,North,-9999.0,-,N/A,,Clear,0,2013-03-04 15:55:00
11:15 AM,40.8,14.2,34,30.02,10.0,North,-9999.0,-,N/A,,Clear,0,2013-03-04 16:15:00
11:35 AM,41.0,14.2,34,30.02,10.0,North,-9999.0,-,N/A,,Clear,0,2013-03-04 16:35:00
11:55 AM,41.9,14.5,33,30.01,-9999.0,North,-9999.0,-,N/A,,Unknown,0,2013-03-04 16:55:00
12:15 PM,43.3,15.1,32,30.00,10.0,North,-9999.0,-,N/A,,Clear,0,2013-03-04 17:15:00
12:35 PM,43.7,14.5,31,29.99,10.0,North,-9999.0,-,N/A,,Clear,0,2013-03-04 17:35:00
12:55 PM,45.1,14.7,29,29.97,10.0,North,-9999.0,-,N/A,,Clear,0,2013-03-04 17:55:00
1:35 PM,47.1,15.8,29,29.96,10.0,WNW,17.3,20.7,N/A,,Clear,290,2013-03-04 18:35:00
1:55 PM,46.8,15.6,29,29.96,10.0,WNW,8.1,17.3,N/A,,Clear,290,2013-03-04 18:55:00
2:35 PM,47.5,16.2,29,29.96,10.0,West,8.1,16.1,N/A,,Clear,270,2013-03-04 19:35:00
2:55 PM,48.4,16.9,29,29.95,10.0,NW,5.8,-,N/A,,Clear,320,2013-03-04 19:55:00
3:15 PM,48.4,16.7,28,29.95,10.0,NW,9.2,-,N/A,,Clear,310,2013-03-04 20:15:00
3:35 PM,49.1,16.9,28,29.95,10.0,West,11.5,17.3,N/A,,Clear,280,2013-03-04 20:35:00
3:55 PM,49.5,17.1,28,29.95,10.0,NW,11.5,17.3,N/A,,Clear,310,2013-03-04 20:55:00
4:35 PM,48.7,16.9,28,29.95,10.0,NW,10.4,-,N/A,,Clear,310,2013-03-04 21:35:00
4:55 PM,48.2,16.2,28,29.95,10.0,NW,5.8,-,N/A,,Clear,320,2013-03-04 21:55:00
5:35 PM,46.4,15.6,29,29.96,10.0,NW,6.9,-,N/A,,Clear,310,2013-03-04 22:35:00
5:55 PM,45.7,15.6,30,29.97,10.0,NNW,5.8,-,N/A,,Clear,330,2013-03-04 22:55:00
6:15 PM,45.0,14.7,30,29.99,10.0,NW,3.5,-,N/A,,Clear,320,2013-03-04 23:15:00
6:35 PM,43.9,14.7,31,30.00,10.0,NNE,3.5,-,N/A,,Clear,20,2013-03-04 23:35:00
6:55 PM,42.6,16.5,35,30.01,10.0,NNE,5.8,-,N/A,,Clear,30,2013-03-04 23:55:00
7:15 PM,41.4,16.3,36,30.01,10.0,NNE,5.8,-,N/A,,Clear,20,2013-03-05 00:15:00
7:35 PM,40.5,16.5,38,30.02,10.0,Calm,Calm,-,N/A,,Clear,0,2013-03-05 00:35:00
7:55 PM,35.4,18.9,51,30.02,10.0,Calm,Calm,-,N/A,,Clear,0,2013-03-05 00:55:00
8:15 PM,36.5,18.0,47,30.02,10.0,NNW,4.6,-,N/A,,Clear,340,2013-03-05 01:15:00
8:35 PM,38.3,16.3,41,30.03,10.0,NNW,4.6,-,N/A,,Clear,340,2013-03-05 01:35:00
8:55 PM,32.2,20.3,62,30.03,10.0,NNW,3.5,-,N/A,,Clear,330,2013-03-05 01:55:00
9:15 PM,32.7,19.2,58,30.03,10.0,NNW,3.5,-,N/A,,Clear,340,2013-03-05 02:15:00
9:35 PM,30.6,19.9,65,30.04,10.0,Calm,Calm,-,N/A,,Clear,0,2013-03-05 02:35:00
9:55 PM,30.6,20.5,66,30.04,10.0,Calm,Calm,-,N/A,,Clear,0,2013-03-05 02:55:00
10:15 PM,30.9,19.2,62,30.04,10.0,Calm,Calm,-,N/A,,Clear,0,2013-03-05 03:15:00
10:35 PM,30.7,20.1,65,30.04,10.0,Calm,Calm,-,N/A,,Clear,0,2013-03-05 03:35:00
10:55 PM,29.8,19.6,66,30.04,10.0,Calm,Calm,-,N/A,,Clear,0,2013-03-05 03:55:00
11:15 PM,29.8,20.8,69,30.05,10.0,Calm,Calm,-,N/A,,Clear,0,2013-03-05 04:15:00
11:35 PM,29.5,20.8,70,30.05,10.0,Calm,Calm,-,N/A,,Clear,0,2013-03-05 04:35:00
11:55 PM,29.8,19.4,65,30.05,10.0,Calm,Calm,-,N/A,,Clear,0,2013-03-05 04:55:00